Weather in Dorado

Puerto Rico     18°25′58″N   66°16′47″W
temp.,
°C
wind,
m/s
gust,
m/s
humid.,
%
clouds,
%
prec.,
mm/h
press.,
hPa
HPBL,
m
28 november, sun
sun2823:00+26ne23775 0.1 1014441
02:00+25ne448369 0.4 1013395
05:00+24ene34857 1.2 1013376
08:00+26ene348091 2.0 1015466
11:00+28ene447099 0.1 1015993
14:00+27ne557633 0.3 1013550
17:00+26ene56815 0.9 1013533
20:00+25e34843 1.3 1014407
29 november, mon
mon2923:00+24se34864 0.1 1014349
02:00+24se22885 0.1 1013151
05:00+23se23895 0.1 1013167
08:00+24sse24875 0.1 1015174
11:00+28ese346710 0.0 1015945
14:00+29ene556317 0.1 10121228
17:00+28e567020 0.8 1012505
20:00+25sse34805 1.9 1014190
30 november, tue
tue3023:00+25sse22825 0.0 1015115
02:00+24sse2284100 0.0 1014113
05:00+24sse2288100 0.0 1014119
08:00+25se238386 0.1 1016172
11:00+28ene446989 0.1 1016890
14:00+29ene656370 0.3 10141163
17:00+27e787324 0.0 1013564
20:00+26e567925 0.1 1016588
1 december, wed
wed123:00+25e3580100 0.0 1016492
02:00+25e4583100 0.1 1015486
05:00+25e5784100 0.3 1015504
08:00+26e478194 0.5 1017607
11:00+28e5669100 0.2 10171136
14:00+29ene776844 0.3 10151050
17:00+27e787495 0.1 1015733
20:00+26e578191 0.3 1016601
2 december, thu
thu223:00+25e578538 0.6 1017504
02:00+25e478796 0.9 1016487
05:00+24ese478765 0.3 1015507
08:00+26e478159 0.6 1016568
11:00+29e786822 0.3 10161224
14:00+29ene786515 0.4 10131192
17:00+27e67737 0.2 1013822
20:00+25ese457911 0.3 1015447